sat.trackr.live / text

‹ back to catalog

2024-199BE

NORAD 61787 · 2024-199BE

PAYLOAD ACTIVE UNKNOWN

§ Identity

Operator
Country
TBD
Launch date
2024-11-04
Launch site
VOSTO
Launch vehicle
Mass (kg)
RCS (m²)

External: N2YO · Heavens-Above · Gunter

§ Orbital elements

Epoch: 2026-05-25T04:39:26.205120Z

Period
93.75 min
Inclination
97.3045°
Eccentricity
0.0014455
Mean motion
15.36013147 rev/d
Perigee alt
448.0 km
Apogee alt
467.8 km
Semi-major
6,836.0 km
B*
2.6244e-4
RAAN
14.3448°
Arg perigee
36.4604°
Mean anomaly
323.7621°
Rev number
13,356

§ Raw data

2024-199BE1 61787U 24199BE  26145.19405330  .00009154  00000+0  26244-3 0  99962 61787  97.3045  14.3448 0014455  36.4604 323.7621 15.36013147133568

JSON: /api/v1/satellites/61787 · /tle

For live sub-satellite position, see the globe view (requires WebGL).

§ Visibility from observer

Set your observer location to see the next 7 days of passes ≥ 10°. The values pass through the URL so the page stays shareable.

No JS? Fill the form by hand. The geolocation button needs JavaScript.